Time,TemperatureF,DewpointF,PressureIn,WindDirection,WindDirectionDegrees,WindSpeedMPH,WindSpeedGustMPH,Humidity,HourlyPrecipIn,Conditions,Clouds,dailyrainin,SoftwareType,DateUTC
2013-04-27 00:02:00,48.0,41.7,28.78,SSW,203,0.0,0.0,79,0.00,,,0.00,WUHU216HW,2013-04-27 05:02:00,
2013-04-27 00:07:00,47.8,41.5,28.78,SSW,203,0.0,0.0,79,0.00,,,0.00,WUHU216HW,2013-04-27 05:07:00,
2013-04-27 00:12:00,47.6,41.4,28.78,SSW,203,0.0,0.0,79,0.00,,,0.00,WUHU216HW,2013-04-27 05:12:00,
2013-04-27 00:17:00,47.4,41.2,28.78,SSW,203,0.0,0.0,79,0.00,,,0.00,WUHU216HW,2013-04-27 05:17:00,
2013-04-27 00:22:00,47.3,41.4,28.78,SSW,203,0.0,0.0,80,0.00,,,0.00,WUHU216HW,2013-04-27 05:22:00,
2013-04-27 00:27:00,47.3,41.4,28.78,SSW,203,0.0,0.0,80,0.00,,,0.00,WUHU216HW,2013-04-27 05:27:00,
2013-04-27 00:33:00,47.1,41.2,28.78,SSW,203,0.0,0.0,80,0.00,,,0.00,WUHU216HW,2013-04-27 05:33:00,
2013-04-27 00:38:00,47.1,41.2,28.78,SSW,203,4.9,4.9,80,0.00,,,0.00,WUHU216HW,2013-04-27 05:38:00,
2013-04-27 00:43:00,46.9,41.1,28.78,SSW,203,4.9,4.9,80,0.00,,,0.00,WUHU216HW,2013-04-27 05:43:00,
2013-04-27 00:48:00,46.9,41.1,28.78,SSW,203,5.3,7.1,80,0.00,,,0.00,WUHU216HW,2013-04-27 05:48:00,
2013-04-27 00:53:00,46.9,41.4,28.78,SSW,203,4.4,7.1,81,0.00,,,0.00,WUHU216HW,2013-04-27 05:53:00,
2013-04-27 00:58:00,46.9,41.4,28.78,SSW,203,2.2,4.9,81,0.00,,,0.00,WUHU216HW,2013-04-27 05:58:00,
2013-04-27 01:03:00,46.7,41.2,28.79,SSW,203,0.0,4.4,81,0.00,,,0.00,WUHU216HW,2013-04-27 06:03:00,
2013-04-27 01:08:00,46.5,41.1,28.79,SSW,203,0.0,2.2,81,0.00,,,0.00,WUHU216HW,2013-04-27 06:08:00,
2013-04-27 01:13:00,46.2,40.7,28.81,North,0,10.0,10.0,81,0.00,,,0.00,WUHU216HW,2013-04-27 06:13:00,
2013-04-27 01:18:00,46.0,40.5,28.80,North,0,0.0,10.0,81,0.00,,,0.00,WUHU216HW,2013-04-27 06:18:00,
2013-04-27 01:23:00,45.8,40.7,28.80,North,0,0.0,10.0,82,0.00,,,0.00,WUHU216HW,2013-04-27 06:23:00,
2013-04-27 01:28:00,45.5,40.3,28.80,North,0,0.0,5.3,82,0.00,,,0.00,WUHU216HW,2013-04-27 06:28:00,
2013-04-27 01:33:00,45.1,39.9,28.80,North,0,0.0,5.3,82,0.00,,,0.00,WUHU216HW,2013-04-27 06:33:00,
2013-04-27 01:38:00,44.9,39.8,28.80,North,0,0.0,0.0,82,0.00,,,0.00,WUHU216HW,2013-04-27 06:38:00,
2013-04-27 01:43:00,44.9,39.8,28.80,North,0,0.0,0.0,82,0.00,,,0.00,WUHU216HW,2013-04-27 06:43:00,
2013-04-27 01:48:00,44.7,39.6,28.79,North,0,0.0,0.0,82,0.00,,,0.00,WUHU216HW,2013-04-27 06:48:00,
2013-04-27 01:53:00,44.6,39.4,28.79,North,0,0.0,0.0,82,0.00,,,0.00,WUHU216HW,2013-04-27 06:53:00,
2013-04-27 01:58:00,44.4,39.2,28.79,North,0,0.0,2.4,82,0.00,,,0.00,WUHU216HW,2013-04-27 06:58:00,
2013-04-27 02:03:00,44.4,39.2,28.79,North,0,0.0,2.4,82,0.00,,,0.00,WUHU216HW,2013-04-27 07:03:00,
2013-04-27 02:08:00,44.2,39.0,28.79,North,0,0.0,0.0,82,0.00,,,0.00,WUHU216HW,2013-04-27 07:08:00,
2013-04-27 02:13:00,44.2,39.0,28.78,North,0,0.0,0.0,82,0.00,,,0.00,WUHU216HW,2013-04-27 07:13:00,
2013-04-27 02:18:00,43.8,38.7,28.78,North,0,0.0,0.0,82,0.00,,,0.00,WUHU216HW,2013-04-27 07:18:00,
2013-04-27 02:23:00,43.8,38.7,28.78,North,0,0.0,0.0,82,0.00,,,0.00,WUHU216HW,2013-04-27 07:23:00,
2013-04-27 02:28:00,43.8,38.7,28.78,North,0,3.5,4.9,82,0.00,,,0.00,WUHU216HW,2013-04-27 07:28:00,
2013-04-27 02:33:00,43.8,38.7,28.77,NNW,338,2.6,5.5,82,0.00,,,0.00,WUHU216HW,2013-04-27 07:33:00,
2013-04-27 02:38:00,44.0,38.9,28.77,NNW,338,0.0,5.5,82,0.00,,,0.00,WUHU216HW,2013-04-27 07:38:00,
2013-04-27 02:43:00,44.2,39.0,28.77,NNW,338,0.0,2.6,82,0.00,,,0.00,WUHU216HW,2013-04-27 07:43:00,
2013-04-27 02:49:00,44.2,39.0,28.76,NNW,338,0.0,0.0,82,0.00,,,0.00,WUHU216HW,2013-04-27 07:49:00,
2013-04-27 02:54:00,44.2,39.0,28.76,NNW,338,0.0,0.0,82,0.00,,,0.00,WUHU216HW,2013-04-27 07:54:00,
2013-04-27 02:59:00,44.0,38.9,28.76,NNW,338,0.0,0.0,82,0.00,,,0.00,WUHU216HW,2013-04-27 07:59:00,
2013-04-27 03:04:00,44.0,38.9,28.76,NNW,338,0.0,0.0,82,0.00,,,0.00,WUHU216HW,2013-04-27 08:04:00,
2013-04-27 03:09:00,44.0,38.9,28.75,NNW,338,0.0,0.0,82,0.00,,,0.00,WUHU216HW,2013-04-27 08:09:00,
2013-04-27 03:14:00,44.0,38.9,28.75,NW,315,0.0,0.0,82,0.00,,,0.00,WUHU216HW,2013-04-27 08:14:00,
2013-04-27 03:19:00,44.0,38.9,28.75,NW,315,0.0,0.0,82,0.00,,,0.00,WUHU216HW,2013-04-27 08:19:00,
2013-04-27 03:24:00,44.2,39.0,28.75,WNW,293,0.0,0.0,82,0.00,,,0.00,WUHU216HW,2013-04-27 08:24:00,
2013-04-27 03:29:00,44.2,39.0,28.75,West,270,0.0,0.0,82,0.00,,,0.00,WUHU216HW,2013-04-27 08:29:00,
2013-04-27 03:34:00,44.4,39.2,28.75,West,270,0.0,0.0,82,0.00,,,0.00,WUHU216HW,2013-04-27 08:34:00,
2013-04-27 03:39:00,44.4,39.2,28.75,West,270,0.0,0.0,82,0.00,,,0.00,WUHU216HW,2013-04-27 08:39:00,
2013-04-27 03:44:00,44.4,39.2,28.75,WSW,248,1.1,1.1,82,0.00,,,0.00,WUHU216HW,2013-04-27 08:44:00,
2013-04-27 03:49:00,44.4,39.5,28.74,SW,225,1.3,1.3,83,0.00,,,0.00,WUHU216HW,2013-04-27 08:49:00,
2013-04-27 03:54:00,44.4,39.5,28.74,SW,225,0.0,1.3,83,0.00,,,0.00,WUHU216HW,2013-04-27 08:54:00,
2013-04-27 03:59:00,44.4,39.5,28.74,SW,225,0.0,1.3,83,0.00,,,0.00,WUHU216HW,2013-04-27 08:59:00,
2013-04-27 04:04:00,44.4,39.5,28.74,SW,225,0.0,0.0,83,0.00,,,0.00,WUHU216HW,2013-04-27 09:04:00,
2013-04-27 04:09:00,44.2,39.3,28.74,SW,225,0.0,0.0,83,0.00,,,0.00,WUHU216HW,2013-04-27 09:09:00,
2013-04-27 04:14:00,43.8,39.0,28.74,SW,225,0.0,0.0,83,0.00,,,0.00,WUHU216HW,2013-04-27 09:14:00,
2013-04-27 04:19:00,43.8,39.0,28.73,SW,225,5.5,5.5,83,0.00,,,0.00,WUHU216HW,2013-04-27 09:19:00,
2013-04-27 04:24:00,43.7,38.8,28.73,SW,225,0.0,5.5,83,0.00,,,0.00,WUHU216HW,2013-04-27 09:24:00,
2013-04-27 04:29:00,43.5,38.6,28.73,SW,225,0.0,0.0,83,0.00,,,0.00,WUHU216HW,2013-04-27 09:29:00,
2013-04-27 04:34:00,43.5,38.6,28.73,SW,225,0.0,0.0,83,0.00,,,0.00,WUHU216HW,2013-04-27 09:34:00,
2013-04-27 04:40:00,43.5,38.6,28.73,SW,225,0.0,0.0,83,0.00,,,0.00,WUHU216HW,2013-04-27 09:40:00,
2013-04-27 04:45:00,43.5,38.6,28.73,SW,225,0.0,0.0,83,0.00,,,0.00,WUHU216HW,2013-04-27 09:45:00,
2013-04-27 04:50:00,43.5,38.6,28.73,SW,225,0.0,0.0,83,0.00,,,0.00,WUHU216HW,2013-04-27 09:50:00,
2013-04-27 04:55:00,43.5,38.6,28.73,SW,225,0.0,0.0,83,0.00,,,0.00,WUHU216HW,2013-04-27 09:55:00,
2013-04-27 05:00:00,43.5,38.6,28.72,SW,225,0.0,4.2,83,0.00,,,0.00,WUHU216HW,2013-04-27 10:00:00,
2013-04-27 05:05:00,43.5,38.6,28.72,SW,225,0.0,4.2,83,0.00,,,0.00,WUHU216HW,2013-04-27 10:05:00,
2013-04-27 05:10:00,43.3,38.4,28.72,SW,225,0.0,0.0,83,0.00,,,0.00,WUHU216HW,2013-04-27 10:10:00,
2013-04-27 05:15:00,43.1,38.3,28.72,SW,225,0.0,0.0,83,0.00,,,0.00,WUHU216HW,2013-04-27 10:15:00,
2013-04-27 05:20:00,43.1,38.3,28.72,SW,225,0.0,0.0,83,0.00,,,0.00,WUHU216HW,2013-04-27 10:20:00,
2013-04-27 05:25:00,42.9,38.1,28.72,SW,225,0.0,0.0,83,0.00,,,0.00,WUHU216HW,2013-04-27 10:25:00,
2013-04-27 05:30:00,42.9,38.1,28.72,SW,225,0.0,0.0,83,0.00,,,0.00,WUHU216HW,2013-04-27 10:30:00,
2013-04-27 05:35:00,42.8,37.9,28.72,SW,225,0.0,0.0,83,0.00,,,0.00,WUHU216HW,2013-04-27 10:35:00,
2013-04-27 05:40:00,42.6,37.7,28.72,SW,225,0.0,0.0,83,0.00,,,0.00,WUHU216HW,2013-04-27 10:40:00,
2013-04-27 05:45:00,42.6,37.7,28.72,SW,225,0.0,0.0,83,0.00,,,0.00,WUHU216HW,2013-04-27 10:45:00,
2013-04-27 05:50:00,42.4,37.5,28.72,SW,225,0.0,0.0,83,0.00,,,0.00,WUHU216HW,2013-04-27 10:50:00,
2013-04-27 05:55:00,42.0,37.2,28.72,SW,225,0.0,0.0,83,0.00,,,0.00,WUHU216HW,2013-04-27 10:55:00,
2013-04-27 06:00:00,42.0,37.5,28.72,SW,225,0.0,0.0,84,0.00,,,0.00,WUHU216HW,2013-04-27 11:00:00,
2013-04-27 06:05:00,41.9,37.3,28.72,SW,225,0.0,0.0,84,0.00,,,0.00,WUHU216HW,2013-04-27 11:05:00,
2013-04-27 06:10:00,41.7,37.1,28.73,SW,225,0.0,0.0,84,0.00,,,0.00,WUHU216HW,2013-04-27 11:10:00,
2013-04-27 06:15:00,41.5,36.6,28.73,SW,225,0.0,0.0,83,0.00,,,0.00,WUHU216HW,2013-04-27 11:15:00,
2013-04-27 06:20:00,41.3,36.5,28.73,SW,225,0.0,0.0,83,0.00,,,0.00,WUHU216HW,2013-04-27 11:20:00,
2013-04-27 06:25:00,41.5,36.6,28.73,SW,225,0.0,0.0,83,0.00,,,0.00,WUHU216HW,2013-04-27 11:25:00,
2013-04-27 06:30:00,41.5,36.6,28.73,SW,225,0.0,0.0,83,0.00,,,0.00,WUHU216HW,2013-04-27 11:30:00,
2013-04-27 06:35:00,41.9,37.5,28.73,SW,225,0.0,0.0,84,0.00,,,0.00,WUHU216HW,2013-04-27 11:35:00,
2013-04-27 06:41:00,42.6,38.0,28.73,SW,225,0.0,0.0,84,0.00,,,0.00,WUHU216HW,2013-04-27 11:41:00,
2013-04-27 06:46:00,42.9,38.4,28.73,SW,225,0.0,0.0,84,0.00,,,0.00,WUHU216HW,2013-04-27 11:46:00,
2013-04-27 06:51:00,43.5,38.9,28.74,SW,225,0.0,0.0,84,0.00,,,0.00,WUHU216HW,2013-04-27 11:51:00,
2013-04-27 06:56:00,43.7,39.4,28.74,SW,225,0.0,0.0,85,0.00,,,0.00,WUHU216HW,2013-04-27 11:56:00,
2013-04-27 07:01:00,43.7,39.4,28.74,SW,225,0.0,0.0,85,0.00,,,0.00,WUHU216HW,2013-04-27 12:01:00,
2013-04-27 07:06:00,43.7,39.4,28.74,SW,225,0.0,0.0,85,0.00,,,0.00,WUHU216HW,2013-04-27 12:06:00,
2013-04-27 07:11:00,43.3,39.1,28.74,SW,225,0.0,0.0,85,0.00,,,0.00,WUHU216HW,2013-04-27 12:11:00,
2013-04-27 07:16:00,43.3,39.1,28.74,SW,225,0.0,0.0,85,0.00,,,0.00,WUHU216HW,2013-04-27 12:16:00,
2013-04-27 07:21:00,43.1,38.9,28.74,SW,225,0.0,0.0,85,0.00,,,0.00,WUHU216HW,2013-04-27 12:21:00,
2013-04-27 07:26:00,43.1,38.9,28.74,SW,225,0.0,0.0,85,0.00,,,0.00,WUHU216HW,2013-04-27 12:26:00,
2013-04-27 07:31:00,43.1,38.9,28.74,SW,225,0.0,0.0,85,0.00,,,0.00,WUHU216HW,2013-04-27 12:31:00,
2013-04-27 07:36:00,43.1,38.9,28.75,SW,225,0.0,0.0,85,0.00,,,0.00,WUHU216HW,2013-04-27 12:36:00,
2013-04-27 07:41:00,43.3,39.1,28.75,SW,225,0.0,0.0,85,0.00,,,0.00,WUHU216HW,2013-04-27 12:41:00,
2013-04-27 07:46:00,43.1,38.9,28.75,SW,225,0.0,0.0,85,0.00,,,0.00,WUHU216HW,2013-04-27 12:46:00,
2013-04-27 07:51:00,43.7,39.4,28.75,SW,225,0.0,0.0,85,0.00,,,0.00,WUHU216HW,2013-04-27 12:51:00,
2013-04-27 07:56:00,43.8,39.6,28.75,SW,225,0.0,0.0,85,0.00,,,0.00,WUHU216HW,2013-04-27 12:56:00,
2013-04-27 08:01:00,44.2,40.0,28.75,SW,225,0.0,0.0,85,0.00,,,0.00,WUHU216HW,2013-04-27 13:01:00,
2013-04-27 08:06:00,44.4,40.4,28.75,SW,225,0.0,0.0,86,0.00,,,0.00,WUHU216HW,2013-04-27 13:06:00,
2013-04-27 08:11:00,44.7,40.8,28.75,SW,225,0.0,0.0,86,0.00,,,0.00,WUHU216HW,2013-04-27 13:11:00,
2013-04-27 08:16:00,44.7,40.8,28.75,WSW,248,0.0,0.0,86,0.00,,,0.00,WUHU216HW,2013-04-27 13:16:00,
2013-04-27 08:21:00,44.9,41.0,28.75,WSW,248,0.0,0.0,86,0.00,,,0.00,WUHU216HW,2013-04-27 13:21:00,
2013-04-27 08:26:00,45.1,41.2,28.75,WNW,293,0.0,0.0,86,0.00,,,0.00,WUHU216HW,2013-04-27 13:26:00,
2013-04-27 08:31:00,45.3,41.3,28.75,WNW,293,0.0,0.0,86,0.00,,,0.00,WUHU216HW,2013-04-27 13:31:00,
2013-04-27 08:36:00,45.5,41.5,28.74,WNW,293,0.0,0.0,86,0.00,,,0.00,WUHU216HW,2013-04-27 13:36:00,
2013-04-27 08:42:00,45.5,41.7,28.74,WNW,293,0.0,0.0,86,0.00,,,0.00,WUHU216HW,2013-04-27 13:42:00,
2013-04-27 08:48:00,45.6,41.7,28.74,WNW,293,0.0,0.0,86,0.00,,,0.00,WUHU216HW,2013-04-27 13:48:00,
2013-04-27 08:53:00,46.0,42.1,28.74,WNW,293,0.0,0.0,86,0.00,,,0.00,WUHU216HW,2013-04-27 13:53:00,
2013-04-27 08:58:00,46.0,42.1,28.74,WNW,293,0.0,0.0,86,0.00,,,0.00,WUHU216HW,2013-04-27 13:58:00,
2013-04-27 09:03:00,46.2,42.2,28.74,WNW,293,0.0,0.0,86,0.00,,,0.00,WUHU216HW,2013-04-27 14:03:00,
2013-04-27 09:08:00,46.5,42.6,28.74,WNW,293,0.0,0.0,86,0.00,,,0.00,WUHU216HW,2013-04-27 14:08:00,
2013-04-27 09:13:00,46.7,42.8,28.74,WNW,293,0.0,0.0,86,0.00,,,0.00,WUHU216HW,2013-04-27 14:13:00,
2013-04-27 09:18:00,47.1,43.1,28.74,WNW,293,0.0,0.0,86,0.00,,,0.00,WUHU216HW,2013-04-27 14:18:00,
2013-04-27 09:23:00,47.3,43.3,28.74,WNW,293,0.0,0.0,86,0.00,,,0.00,WUHU216HW,2013-04-27 14:23:00,
2013-04-27 09:28:00,47.4,43.5,28.73,WNW,293,0.0,0.0,86,0.00,,,0.00,WUHU216HW,2013-04-27 14:28:00,
2013-04-27 09:33:00,48.0,44.3,28.73,WNW,293,0.0,0.0,87,0.00,,,0.00,WUHU216HW,2013-04-27 14:33:00,
2013-04-27 09:38:00,48.0,44.3,28.74,SW,225,0.0,2.6,87,0.00,,,0.00,WUHU216HW,2013-04-27 14:38:00,
2013-04-27 09:43:00,48.3,44.6,28.73,SW,225,3.8,5.3,87,0.00,,,0.00,WUHU216HW,2013-04-27 14:43:00,
2013-04-27 09:49:00,48.5,44.8,28.73,SW,225,6.4,6.4,87,0.00,,,0.00,WUHU216HW,2013-04-27 14:49:00,
2013-04-27 09:54:00,48.7,44.7,28.73,SW,225,4.2,6.4,86,0.00,,,0.00,WUHU216HW,2013-04-27 14:54:00,
2013-04-27 09:59:00,48.9,44.8,28.73,SW,225,7.3,7.3,86,0.00,,,0.00,WUHU216HW,2013-04-27 14:59:00,
2013-04-27 10:04:00,49.1,45.0,28.73,SW,225,3.3,7.3,86,0.00,,,0.00,WUHU216HW,2013-04-27 15:04:00,
2013-04-27 10:09:00,49.2,45.2,28.73,SW,225,5.8,7.3,86,0.00,,,0.00,WUHU216HW,2013-04-27 15:09:00,
2013-04-27 10:14:00,49.6,45.5,28.73,SW,225,6.7,7.1,86,0.00,,,0.00,WUHU216HW,2013-04-27 15:14:00,
2013-04-27 10:19:00,49.8,45.7,28.73,SW,225,6.4,6.7,86,0.00,,,0.00,WUHU216HW,2013-04-27 15:19:00,
2013-04-27 10:24:00,49.8,45.4,28.73,SW,225,6.0,6.7,85,0.00,,,0.00,WUHU216HW,2013-04-27 15:24:00,
2013-04-27 10:29:00,49.8,45.4,28.73,SW,225,4.4,7.1,85,0.00,,,0.00,WUHU216HW,2013-04-27 15:29:00,
2013-04-27 10:34:00,50.0,45.5,28.73,SW,225,7.8,7.8,85,0.00,,,0.00,WUHU216HW,2013-04-27 15:34:00,
2013-04-27 10:39:00,50.1,45.4,28.73,SW,225,6.9,7.8,84,0.00,,,0.00,WUHU216HW,2013-04-27 15:39:00,
2013-04-27 10:44:00,50.3,45.6,28.73,SW,225,7.6,7.8,84,0.00,,,0.00,WUHU216HW,2013-04-27 15:44:00,
2013-04-27 10:49:00,50.3,45.6,28.73,SW,225,7.1,8.7,84,0.00,,,0.00,WUHU216HW,2013-04-27 15:49:00,
2013-04-27 10:54:00,50.3,45.3,28.73,SW,225,6.0,8.7,83,0.00,,,0.00,WUHU216HW,2013-04-27 15:54:00,
2013-04-27 10:59:00,50.5,45.5,28.73,SSW,203,7.6,10.0,83,0.00,,,0.00,WUHU216HW,2013-04-27 15:59:00,
2013-04-27 11:04:00,50.7,45.6,28.73,SW,225,8.2,10.0,83,0.00,,,0.00,WUHU216HW,2013-04-27 16:04:00,
2013-04-27 11:09:00,50.9,45.5,28.73,SSW,203,5.5,8.2,82,0.00,,,0.00,WUHU216HW,2013-04-27 16:09:00,
2013-04-27 11:14:00,50.9,45.5,28.73,SSW,203,5.3,8.2,82,0.00,,,0.00,WUHU216HW,2013-04-27 16:14:00,
2013-04-27 11:19:00,51.0,45.7,28.73,SSW,203,5.8,8.5,82,0.00,,,0.00,WUHU216HW,2013-04-27 16:19:00,
2013-04-27 11:24:00,51.6,46.2,28.73,South,180,2.4,10.9,82,0.00,,,0.00,WUHU216HW,2013-04-27 16:24:00,
2013-04-27 11:29:00,52.5,47.0,28.73,SW,225,7.1,10.9,81,0.00,,,0.00,WUHU216HW,2013-04-27 16:29:00,
2013-04-27 11:34:00,52.8,47.2,28.73,SW,225,5.3,7.1,81,0.00,,,0.00,WUHU216HW,2013-04-27 16:34:00,
2013-04-27 11:39:00,53.2,47.3,28.73,SW,225,6.7,7.1,80,0.00,,,0.00,WUHU216HW,2013-04-27 16:39:00,
2013-04-27 11:44:00,53.7,47.4,28.73,SW,225,6.9,8.2,79,0.00,,,0.00,WUHU216HW,2013-04-27 16:44:00,
2013-04-27 11:49:00,54.1,47.7,28.73,SSW,203,6.7,8.2,79,0.00,,,0.00,WUHU216HW,2013-04-27 16:49:00,
2013-04-27 11:54:00,55.0,48.2,28.73,SSW,203,4.6,6.9,78,0.00,,,0.00,WUHU216HW,2013-04-27 16:54:00,
2013-04-27 11:59:00,55.0,47.9,28.73,SW,225,0.0,8.0,77,0.00,,,0.00,WUHU216HW,2013-04-27 16:59:00,
2013-04-27 12:05:00,55.4,48.2,28.73,SSW,203,10.7,10.7,77,0.00,,,0.00,WUHU216HW,2013-04-27 17:05:00,
2013-04-27 12:10:00,55.9,48.4,28.73,South,180,7.8,10.7,76,0.00,,,0.00,WUHU216HW,2013-04-27 17:10:00,
2013-04-27 12:15:00,56.4,48.5,28.73,SSW,203,6.2,10.7,75,0.00,,,0.00,WUHU216HW,2013-04-27 17:15:00,
2013-04-27 12:20:00,57.3,49.4,28.73,SSW,203,6.2,7.8,75,0.00,,,0.00,WUHU216HW,2013-04-27 17:20:00,
2013-04-27 12:25:00,57.9,49.2,28.72,SSE,158,8.9,8.9,73,0.00,,,0.00,WUHU216HW,2013-04-27 17:25:00,
2013-04-27 12:30:00,58.2,49.2,28.72,SW,225,0.0,8.9,72,0.00,,,0.00,WUHU216HW,2013-04-27 17:30:00,
2013-04-27 12:35:00,58.8,49.8,28.72,South,180,9.6,9.6,72,0.00,,,0.00,WUHU216HW,2013-04-27 17:35:00,
2013-04-27 12:40:00,58.8,49.8,28.71,South,180,0.0,10.2,72,0.00,,,0.00,WUHU216HW,2013-04-27 17:40:00,
2013-04-27 12:45:00,58.8,49.4,28.71,South,180,7.1,10.2,71,0.00,,,0.00,WUHU216HW,2013-04-27 17:45:00,
2013-04-27 12:50:00,58.8,49.4,28.71,SSW,203,6.7,7.1,71,0.00,,,0.00,WUHU216HW,2013-04-27 17:50:00,
2013-04-27 12:55:00,59.1,49.4,28.71,SW,225,0.0,7.1,70,0.00,,,0.00,WUHU216HW,2013-04-27 17:55:00,
2013-04-27 13:00:00,59.5,49.8,28.71,SSW,203,0.0,7.6,70,0.00,,,0.00,WUHU216HW,2013-04-27 18:00:00,
2013-04-27 13:05:00,59.9,49.7,28.71,SSW,203,0.0,7.6,69,0.00,,,0.00,WUHU216HW,2013-04-27 18:05:00,
2013-04-27 13:10:00,59.9,49.3,28.70,SW,225,5.5,5.5,68,0.00,,,0.00,WUHU216HW,2013-04-27 18:10:00,
2013-04-27 13:15:00,59.9,49.3,28.70,SW,225,6.0,6.7,68,0.00,,,0.00,WUHU216HW,2013-04-27 18:15:00,
2013-04-27 13:20:00,60.0,49.5,28.70,South,180,7.3,7.3,68,0.00,,,0.00,WUHU216HW,2013-04-27 18:20:00,
2013-04-27 13:25:00,60.4,49.8,28.69,SW,225,6.2,7.3,68,0.00,,,0.00,WUHU216HW,2013-04-27 18:25:00,
2013-04-27 13:30:00,60.9,49.8,28.69,SSW,203,0.0,8.2,67,0.00,,,0.00,WUHU216HW,2013-04-27 18:30:00,
2013-04-27 13:35:00,60.9,49.5,28.69,SW,225,0.0,9.3,66,0.00,,,0.00,WUHU216HW,2013-04-27 18:35:00,
2013-04-27 13:40:00,61.1,50.1,28.68,SSW,203,0.0,9.3,67,0.00,,,0.00,WUHU216HW,2013-04-27 18:40:00,
2013-04-27 13:46:00,61.3,49.9,28.68,South,180,0.0,7.3,66,0.00,,,0.00,WUHU216HW,2013-04-27 18:46:00,
2013-04-27 13:51:00,61.8,49.9,28.68,SSE,158,5.8,7.3,65,0.00,,,0.00,WUHU216HW,2013-04-27 18:51:00,
2013-04-27 13:56:00,62.2,50.7,28.68,SSE,158,0.0,7.1,66,0.00,,,0.00,WUHU216HW,2013-04-27 18:56:00,
2013-04-27 14:01:00,62.7,50.4,28.68,SSW,203,7.6,7.6,65,0.00,,,0.00,WUHU216HW,2013-04-27 19:01:00,
2013-04-27 14:06:00,63.1,50.7,28.68,SW,225,0.0,7.6,64,0.00,,,0.00,WUHU216HW,2013-04-27 19:06:00,
2013-04-27 14:11:00,63.3,50.8,28.68,SW,225,4.0,7.6,64,0.00,,,0.00,WUHU216HW,2013-04-27 19:11:00,
2013-04-27 14:16:00,63.3,50.2,28.68,SW,225,0.0,7.1,63,0.00,,,0.00,WUHU216HW,2013-04-27 19:16:00,
2013-04-27 14:21:00,63.6,50.7,28.67,SW,225,0.0,7.1,63,0.00,,,0.00,WUHU216HW,2013-04-27 19:21:00,
2013-04-27 14:26:00,63.6,50.3,28.67,SW,225,6.9,7.1,62,0.00,,,0.00,WUHU216HW,2013-04-27 19:26:00,
2013-04-27 14:31:00,63.6,50.5,28.66,SW,225,0.0,6.9,62,0.00,,,0.00,WUHU216HW,2013-04-27 19:31:00,
2013-04-27 14:36:00,64.2,51.2,28.66,SSW,203,0.0,0.0,63,0.00,,,0.00,WUHU216HW,2013-04-27 19:36:00,
2013-04-27 14:41:00,64.5,50.7,28.66,SW,225,0.0,6.2,61,0.00,,,0.00,WUHU216HW,2013-04-27 19:41:00,
2013-04-27 14:46:00,65.1,51.5,28.66,SW,225,7.1,7.1,61,0.00,,,0.00,WUHU216HW,2013-04-27 19:46:00,
2013-04-27 14:51:00,65.3,51.0,28.66,SW,225,0.0,7.1,60,0.00,,,0.00,WUHU216HW,2013-04-27 19:51:00,
2013-04-27 14:56:00,65.4,51.2,28.66,SW,225,6.9,7.1,60,0.00,,,0.00,WUHU216HW,2013-04-27 19:56:00,
2013-04-27 15:01:00,65.8,51.6,28.66,SW,225,0.0,6.9,60,0.00,,,0.00,WUHU216HW,2013-04-27 20:01:00,
2013-04-27 15:06:00,66.2,52.3,28.65,South,180,0.0,0.0,61,0.00,,,0.00,WUHU216HW,2013-04-27 20:06:00,
2013-04-27 15:11:00,66.7,52.4,28.65,South,180,9.8,9.8,60,0.00,,,0.00,WUHU216HW,2013-04-27 20:11:00,
2013-04-27 15:16:00,67.2,52.4,28.64,SE,135,2.6,9.8,59,0.00,,,0.00,WUHU216HW,2013-04-27 20:16:00,
2013-04-27 15:21:00,67.6,52.7,28.64,South,180,0.0,12.7,59,0.00,,,0.00,WUHU216HW,2013-04-27 20:21:00,
2013-04-27 15:26:00,68.0,53.1,28.64,SSW,203,0.0,12.7,59,0.00,,,0.00,WUHU216HW,2013-04-27 20:26:00,
2013-04-27 15:31:00,68.3,52.4,28.64,South,180,0.0,6.2,57,0.00,,,0.00,WUHU216HW,2013-04-27 20:31:00,
2013-04-27 15:36:00,68.5,52.6,28.64,WSW,248,0.0,6.2,57,0.00,,,0.00,WUHU216HW,2013-04-27 20:36:00,
2013-04-27 15:41:00,68.7,52.8,28.63,SSW,203,7.1,9.1,57,0.00,,,0.00,WUHU216HW,2013-04-27 20:41:00,
2013-04-27 15:46:00,68.9,52.5,28.63,South,180,3.3,9.1,56,0.00,,,0.00,WUHU216HW,2013-04-27 20:46:00,
2013-04-27 15:51:00,69.2,52.8,28.63,South,180,6.0,7.1,56,0.00,,,0.00,WUHU216HW,2013-04-27 20:51:00,
2013-04-27 15:56:00,69.4,52.5,28.63,SW,225,6.4,7.3,55,0.00,,,0.00,WUHU216HW,2013-04-27 20:56:00,
2013-04-27 16:01:00,69.0,51.6,28.63,SW,225,0.0,7.3,54,0.00,,,0.00,WUHU216HW,2013-04-27 21:01:00,
2013-04-27 16:06:00,69.2,52.3,28.62,SSW,203,0.0,6.4,55,0.00,,,0.00,WUHU216HW,2013-04-27 21:06:00,
2013-04-27 16:11:00,69.4,52.5,28.62,SE,135,0.0,0.0,55,0.00,,,0.00,WUHU216HW,2013-04-27 21:11:00,
2013-04-27 16:17:00,69.6,52.7,28.62,SW,225,7.1,7.1,55,0.00,,,0.00,WUHU216HW,2013-04-27 21:17:00,
2013-04-27 16:22:00,69.6,52.1,28.61,SW,225,0.0,7.1,54,0.00,,,0.00,WUHU216HW,2013-04-27 21:22:00,
2013-04-27 16:27:00,70.1,52.7,28.61,SSW,203,0.0,4.9,54,0.00,,,0.00,WUHU216HW,2013-04-27 21:27:00,
2013-04-27 16:32:00,70.3,52.8,28.61,SSW,203,0.0,4.9,54,0.00,,,0.00,WUHU216HW,2013-04-27 21:32:00,
2013-04-27 16:37:00,70.5,52.5,28.60,SSW,203,0.0,0.0,53,0.00,,,0.00,WUHU216HW,2013-04-27 21:37:00,
2013-04-27 16:42:00,70.5,52.0,28.60,SSW,203,0.0,6.0,52,0.00,,,0.00,WUHU216HW,2013-04-27 21:42:00,
2013-04-27 16:47:00,70.8,51.8,28.60,SSW,203,0.0,6.0,51,0.00,,,0.00,WUHU216HW,2013-04-27 21:47:00,
2013-04-27 16:52:00,70.8,51.8,28.60,SSW,203,0.0,0.0,51,0.00,,,0.00,WUHU216HW,2013-04-27 21:52:00,
2013-04-27 16:57:00,70.8,51.8,28.60,SSW,203,10.9,10.9,51,0.00,,,0.00,WUHU216HW,2013-04-27 21:57:00,
2013-04-27 17:02:00,70.8,51.8,28.60,SW,225,7.1,10.9,51,0.00,,,0.00,WUHU216HW,2013-04-27 22:02:00,
2013-04-27 17:07:00,70.8,51.8,28.60,SW,225,0.0,7.1,51,0.00,,,0.00,WUHU216HW,2013-04-27 22:07:00,
2013-04-27 17:12:00,70.8,51.8,28.60,SW,225,4.6,4.6,51,0.00,,,0.00,WUHU216HW,2013-04-27 22:12:00,
2013-04-27 17:17:00,71.2,51.6,28.59,SSW,203,8.0,8.0,50,0.00,,,0.00,WUHU216HW,2013-04-27 22:17:00,
2013-04-27 17:22:00,71.2,52.1,28.59,South,180,0.0,8.0,51,0.00,,,0.00,WUHU216HW,2013-04-27 22:22:00,
2013-04-27 17:27:00,71.2,52.1,28.59,South,180,0.0,8.0,51,0.00,,,0.00,WUHU216HW,2013-04-27 22:27:00,
2013-04-27 17:33:00,71.6,52.3,28.59,South,180,0.0,0.0,50,0.00,,,0.00,WUHU216HW,2013-04-27 22:33:00,
2013-04-27 17:38:00,71.7,52.1,28.59,South,180,0.0,0.0,50,0.00,,,0.00,WUHU216HW,2013-04-27 22:38:00,
2013-04-27 17:43:00,71.7,50.9,28.58,SW,225,7.3,7.3,48,0.00,,,0.00,WUHU216HW,2013-04-27 22:43:00,
2013-04-27 17:48:00,71.4,51.2,28.58,SSW,203,5.3,7.3,49,0.00,,,0.00,WUHU216HW,2013-04-27 22:48:00,
2013-04-27 17:53:00,71.4,51.2,28.58,South,180,4.0,9.6,49,0.00,,,0.00,WUHU216HW,2013-04-27 22:53:00,
2013-04-27 17:58:00,71.2,51.6,28.58,South,180,0.0,9.6,50,0.00,,,0.00,WUHU216HW,2013-04-27 22:58:00,
2013-04-27 18:03:00,71.4,51.8,28.58,SSE,158,0.0,7.1,50,0.00,,,0.00,WUHU216HW,2013-04-27 23:03:00,
2013-04-27 18:08:00,71.4,51.8,28.58,SSE,158,6.9,7.1,50,0.00,,,0.00,WUHU216HW,2013-04-27 23:08:00,
2013-04-27 18:13:00,71.4,51.8,28.58,SSW,203,8.0,8.0,50,0.00,,,0.00,WUHU216HW,2013-04-27 23:13:00,
2013-04-27 18:18:00,71.2,51.6,28.58,South,180,0.0,12.0,50,0.00,,,0.00,WUHU216HW,2013-04-27 23:18:00,
2013-04-27 18:23:00,70.8,51.3,28.58,SSE,158,1.1,12.0,50,0.00,,,0.00,WUHU216HW,2013-04-27 23:23:00,
2013-04-27 18:28:00,70.5,51.0,28.57,SSE,158,5.3,8.5,50,0.00,,,0.00,WUHU216HW,2013-04-27 23:28:00,
2013-04-27 18:33:00,69.9,50.5,28.57,South,180,7.1,10.5,50,0.00,,,0.00,WUHU216HW,2013-04-27 23:33:00,
2013-04-27 18:38:00,69.4,50.0,28.57,South,180,7.6,10.5,50,0.00,,,0.00,WUHU216HW,2013-04-27 23:38:00,
2013-04-27 18:43:00,68.9,49.5,28.57,South,180,5.8,8.7,50,0.00,,,0.00,WUHU216HW,2013-04-27 23:43:00,
2013-04-27 18:48:00,68.5,49.7,28.57,SSE,158,6.4,8.7,51,0.00,,,0.00,WUHU216HW,2013-04-27 23:48:00,
2013-04-27 18:53:00,68.1,49.3,28.57,SSE,158,4.0,6.4,51,0.00,,,0.00,WUHU216HW,2013-04-27 23:53:00,
2013-04-27 18:58:00,67.8,49.5,28.56,SSE,158,9.3,9.3,52,0.00,,,0.00,WUHU216HW,2013-04-27 23:58:00,
2013-04-27 19:03:00,67.4,49.2,28.56,South,180,7.1,9.3,52,0.00,,,0.00,WUHU216HW,2013-04-28 00:03:00,
2013-04-27 19:08:00,67.2,49.0,28.56,South,180,7.8,10.9,52,0.00,,,0.00,WUHU216HW,2013-04-28 00:08:00,
2013-04-27 19:13:00,66.7,48.5,28.56,South,180,8.2,14.9,52,0.00,,,0.00,WUHU216HW,2013-04-28 00:13:00,
2013-04-27 19:18:00,66.5,48.4,28.56,South,180,6.7,14.9,52,0.00,,,0.00,WUHU216HW,2013-04-28 00:18:00,
2013-04-27 19:23:00,66.2,48.5,28.56,South,180,7.8,11.4,53,0.00,,,0.00,WUHU216HW,2013-04-28 00:23:00,
2013-04-27 19:29:00,65.8,48.2,28.56,South,180,6.0,7.8,53,0.00,,,0.00,WUHU216HW,2013-04-28 00:29:00,
2013-04-27 19:34:00,65.4,48.3,28.56,South,180,6.4,7.8,54,0.00,,,0.00,WUHU216HW,2013-04-28 00:34:00,
2013-04-27 19:39:00,65.1,47.9,28.56,South,180,7.6,7.8,54,0.00,,,0.00,WUHU216HW,2013-04-28 00:39:00,
2013-04-27 19:44:00,64.7,47.6,28.56,South,180,5.3,7.6,54,0.00,,,0.00,WUHU216HW,2013-04-28 00:44:00,
2013-04-27 19:49:00,64.5,47.4,28.56,South,180,6.7,8.0,54,0.00,,,0.00,WUHU216HW,2013-04-28 00:49:00,
2013-04-27 19:54:00,64.0,47.4,28.56,South,180,9.6,9.6,55,0.00,,,0.00,WUHU216HW,2013-04-28 00:54:00,
2013-04-27 19:59:00,63.5,46.9,28.56,South,180,6.2,9.6,55,0.00,,,0.00,WUHU216HW,2013-04-28 00:59:00,
2013-04-27 20:04:00,63.1,46.6,28.55,South,180,6.4,7.6,55,0.00,,,0.00,WUHU216HW,2013-04-28 01:04:00,
2013-04-27 20:09:00,62.7,46.2,28.55,South,180,4.0,6.4,55,0.00,,,0.00,WUHU216HW,2013-04-28 01:09:00,
2013-04-27 20:14:00,62.2,46.2,28.55,South,180,8.7,8.7,56,0.00,,,0.00,WUHU216HW,2013-04-28 01:14:00,
2013-04-27 20:19:00,61.8,45.9,28.55,South,180,7.3,9.1,56,0.00,,,0.00,WUHU216HW,2013-04-28 01:19:00,
2013-04-27 20:24:00,61.3,45.9,28.55,South,180,2.0,9.1,57,0.00,,,0.00,WUHU216HW,2013-04-28 01:24:00,
2013-04-27 20:29:00,60.9,46.1,28.55,South,180,6.4,8.2,58,0.00,,,0.00,WUHU216HW,2013-04-28 01:29:00,
2013-04-27 20:34:00,60.4,45.6,28.55,South,180,7.8,8.2,58,0.00,,,0.00,WUHU216HW,2013-04-28 01:34:00,
2013-04-27 20:39:00,60.0,45.7,28.55,South,180,7.3,7.8,59,0.00,,,0.00,WUHU216HW,2013-04-28 01:39:00,
2013-04-27 20:44:00,59.7,45.3,28.55,South,180,1.1,7.3,59,0.00,,,0.00,WUHU216HW,2013-04-28 01:44:00,
2013-04-27 20:49:00,59.3,45.5,28.55,South,180,10.0,10.0,60,0.00,,,0.00,WUHU216HW,2013-04-28 01:49:00,
2013-04-27 20:54:00,58.8,44.9,28.55,South,180,5.1,10.0,60,0.00,,,0.00,WUHU216HW,2013-04-28 01:54:00,
2013-04-27 20:59:00,58.8,45.3,28.55,South,180,4.9,9.8,61,0.00,,,0.00,WUHU216HW,2013-04-28 01:59:00,
2013-04-27 21:04:00,58.6,45.2,28.55,South,180,2.9,7.3,61,0.00,,,0.00,WUHU216HW,2013-04-28 02:04:00,
2013-04-27 21:09:00,58.2,45.3,28.55,South,180,4.9,6.2,62,0.00,,,0.00,WUHU216HW,2013-04-28 02:09:00,
2013-04-27 21:14:00,57.9,44.9,28.55,South,180,3.8,6.9,62,0.00,,,0.00,WUHU216HW,2013-04-28 02:14:00,
2013-04-27 21:19:00,57.9,45.3,28.55,SSE,158,4.9,7.8,63,0.00,,,0.00,WUHU216HW,2013-04-28 02:19:00,
2013-04-27 21:24:00,57.5,45.0,28.55,South,180,0.0,7.8,63,0.00,,,0.00,WUHU216HW,2013-04-28 02:24:00,
2013-04-27 21:29:00,57.3,44.8,28.55,South,180,2.9,4.4,63,0.00,,,0.00,WUHU216HW,2013-04-28 02:29:00,
2013-04-27 21:34:00,57.0,44.5,28.55,South,180,5.5,6.0,63,0.00,,,0.00,WUHU216HW,2013-04-28 02:34:00,
2013-04-27 21:39:00,56.8,44.7,28.55,South,180,1.7,7.3,64,0.00,,,0.00,WUHU216HW,2013-04-28 02:39:00,
2013-04-27 21:44:00,56.4,44.4,28.56,South,180,4.9,7.3,64,0.00,,,0.00,WUHU216HW,2013-04-28 02:44:00,
2013-04-27 21:50:00,56.1,44.4,28.56,South,180,5.3,7.6,65,0.00,,,0.00,WUHU216HW,2013-04-28 02:50:00,
2013-04-27 21:55:00,55.9,44.4,28.56,South,180,5.3,7.6,65,0.00,,,0.00,WUHU216HW,2013-04-28 02:55:00,
2013-04-27 22:00:00,55.7,44.1,28.56,South,180,0.0,5.3,65,0.00,,,0.00,WUHU216HW,2013-04-28 03:00:00,
2013-04-27 22:05:00,55.5,44.3,28.56,South,180,4.9,6.2,66,0.00,,,0.00,WUHU216HW,2013-04-28 03:05:00,
2013-04-27 22:10:00,55.2,44.0,28.56,South,180,5.5,6.2,66,0.00,,,0.00,WUHU216HW,2013-04-28 03:10:00,
2013-04-27 22:15:00,55.2,44.0,28.56,South,180,1.5,6.2,66,0.00,,,0.00,WUHU216HW,2013-04-28 03:15:00,
2013-04-27 22:20:00,55.0,44.2,28.56,South,180,6.7,7.3,67,0.00,,,0.00,WUHU216HW,2013-04-28 03:20:00,
2013-04-27 22:25:00,55.0,44.2,28.56,South,180,6.7,8.7,67,0.00,,,0.00,WUHU216HW,2013-04-28 03:25:00,
2013-04-27 22:30:00,55.0,44.6,28.56,South,180,7.8,8.7,68,0.00,,,0.00,WUHU216HW,2013-04-28 03:30:00,
2013-04-27 22:35:00,55.0,44.6,28.56,South,180,7.1,9.3,68,0.00,,,0.00,WUHU216HW,2013-04-28 03:35:00,
2013-04-27 22:40:00,54.8,44.4,28.56,South,180,6.9,9.3,68,0.00,,,0.00,WUHU216HW,2013-04-28 03:40:00,
2013-04-27 22:45:00,54.6,44.3,28.56,South,180,5.8,7.3,68,0.00,,,0.00,WUHU216HW,2013-04-28 03:45:00,
2013-04-27 22:50:00,54.5,44.1,28.56,South,180,5.3,8.9,68,0.00,,,0.00,WUHU216HW,2013-04-28 03:50:00,
2013-04-27 22:55:00,54.3,43.9,28.56,South,180,7.1,8.9,68,0.00,,,0.00,WUHU216HW,2013-04-28 03:55:00,
2013-04-27 23:00:00,54.1,44.1,28.55,South,180,7.6,7.6,69,0.00,,,0.00,WUHU216HW,2013-04-28 04:00:00,
2013-04-27 23:01:00,53.9,44.0,28.55,South,180,6.4,7.6,69,0.00,,,0.00,WUHU216HW,2013-04-28 04:01:00,
2013-04-27 23:02:00,53.9,44.0,28.55,South,180,6.9,7.6,69,0.00,,,0.00,WUHU216HW,2013-04-28 04:02:00,
2013-04-27 23:07:00,53.7,43.8,28.55,South,180,6.9,8.2,69,0.00,,,0.00,WUHU216HW,2013-04-28 04:07:00,
2013-04-27 23:12:00,53.7,44.2,28.55,South,180,8.0,8.2,70,0.00,,,0.00,WUHU216HW,2013-04-28 04:12:00,
2013-04-27 23:17:00,53.7,44.2,28.55,South,180,9.1,9.1,70,0.00,,,0.00,WUHU216HW,2013-04-28 04:17:00,
2013-04-27 23:22:00,53.4,43.8,28.55,South,180,7.3,9.1,70,0.00,,,0.00,WUHU216HW,2013-04-28 04:22:00,
2013-04-27 23:28:00,53.4,43.8,28.55,South,180,7.1,9.1,70,0.00,,,0.00,WUHU216HW,2013-04-28 04:28:00,
2013-04-27 23:33:00,53.2,44.0,28.55,South,180,6.4,7.6,71,0.00,,,0.00,WUHU216HW,2013-04-28 04:33:00,
2013-04-27 23:38:00,53.2,44.0,28.55,South,180,6.7,7.6,71,0.00,,,0.00,WUHU216HW,2013-04-28 04:38:00,
2013-04-27 23:43:00,53.2,44.0,28.55,SSW,203,8.5,8.5,71,0.00,,,0.00,WUHU216HW,2013-04-28 04:43:00,
2013-04-27 23:48:00,53.0,43.9,28.55,SSW,203,7.8,8.5,71,0.00,,,0.00,WUHU216HW,2013-04-28 04:48:00,
2013-04-27 23:53:00,53.0,43.9,28.55,South,180,10.2,10.2,71,0.00,,,0.00,WUHU216HW,2013-04-28 04:53:00,
2013-04-27 23:58:00,52.8,43.7,28.55,South,180,6.9,10.2,71,0.00,,,0.00,WUHU216HW,2013-04-28 04:58:00,